Home > Time Zones > World Clock > Weather > India > Siwan > Past weeks

Flag for India Weather past 2 weeks in Siwan, Bihar, India

Now
90 °F

Scattered clouds.


Feels Like: 105 °F
Forecast: 77 / 89 °F
Wind: 7 mph from East

Location: Varanasi / Babatpur

Current Time: Sep 20, 2014 at 4:38:21 PM

Latest Report: Sep 20, 2014 at 4:00 PM


Visibility: 3 mi

Pressure: 29.56 "Hg

Humidity: 71%

Dew point: 79 °F

Location of SiwanLocation

Historic Weather in Siwan — Graph

°F

Siwan temperature yesterday

Maximum temperature yesterday: 97 °F (at 1:00 PM)
Minimum temperature yesterday: 77 °F (at 11:00 PM)
Average temperature yesterday: 88 °F

Past Weeks' High & Low Weather Summary

 TemperatureHumidityPressure
High97 °F (Sep 18, 2:00 PM)100% (Sep 12, 6:00 AM)29.74 "Hg (Sep 12, 6:00 AM)
Low75 °F (Sep 20, 12:00 AM)59% (Sep 9, 3:00 PM)29.50 "Hg (Sep 5, 5:00 PM)
Average85 °F81%29.62 "Hg
* Reported Sep 5 3:00 PM — Sep 20 3:00 PM, Siwan, Weather by CustomWeather, © 2014

Note: Actual official high and low records may vary slightly from our data, if they occured in-between our weather recording intervals... More about our weather records

Advertising

Siwan weather history for previous 24 hours

 ConditionsComfort  
Time TempWeatherWind HumidityBarometerVisibility
3:00 PM
Sep 20
90 °FScattered clouds.5 mph67%29.56 "Hg3 mi
1:00 PM88 °FScattered clouds.6 mph75%29.62 "Hg3 mi
12:00 PM86 °FBroken clouds.6 mph79%29.65 "Hg2 mi
11:00 AM84 °FBroken clouds.6 mph84%29.68 "Hg2 mi
10:00 AM82 °FBroken clouds.6 mph89%29.68 "Hg2 mi
8:00 AM81 °FBroken clouds.6 mph94%29.68 "Hg2 mi
7:00 AM81 °FBroken clouds.5 mph94%29.65 "Hg2 mi
5:00 AM77 °FPartly cloudy.5 mph94%29.62 "Hg2 mi
4:00 AM77 °FPartly cloudy.7 mph94%29.65 "Hg2 mi
12:00 AM75 °FLight rain. Mostly cloudy.3 mph100%29.68 "Hg2 mi
11:00 PM
Sep 19
77 °FPartly cloudy.7 mph94%29.68 "Hg2 mi
10:00 PM79 °FThunderstorms. Partly cloudy.6 mph94%29.68 "Hg2 mi
9:00 PM86 °FThunderstorms. Partly cloudy.10 mph79%29.65 "Hg2 mi
8:00 PM90 °FThunderstorms. Partly cloudy.14 mph71%29.65 "Hg2 mi
7:00 PM91 °FPassing clouds.No wind67%29.59 "Hg2 mi
5:00 PM97 °FScattered clouds.3 mph60%29.59 "Hg3 mi
4:00 PM97 °FScattered clouds.6 mph60%29.56 "Hg3 mi
Weather by CustomWeather, © 2014

See weather overviewHow to use our weather pages